Tracking 18850 objects as of 22-Nov-2017
HD Live streaming from Space Station
objects crossing your sky now

FENGYUN 1C DEB

Track FENGYUN 1C DEB now!
10-day predictions


NORAD ID: 33693
Int'l Code: 1999-025DGE
Perigee: 849.2 km
Apogee: 1,203.8 km
Inclination: 99.4 °
Period: 105.5 minutes
Semi major axis: 7397 km
RCS: 0.0077 m2 (small)
Launch date: May 10, 1999
Source: People's Republic of China (PRC)
Launch site: Taiyaun Space Center, China (TSC)

Note: This is SATELLITE DEBRIS
aabbcc
Your satellite tracking list
Your tracking list is empty




NASA's NSSDC Master Catalog

Two Line Element Set (TLE):
1 33693U 99025DGE 17323.22110311 +.00001174 +00000-0 +12461-2 0  9995
2 33693 099.3799 215.0816 0239676 069.2717 057.2097 13.64495896479993
Source of the keplerian elements: AFSPC